Sete, France

6:59 AM CET on March 25, 2017 (GMT +0100)
Vias

Weather History for LFMU - November, 2013

Change the Weather History Date:

Tuesday, November 12, 2013

  Actual Average (LFMT) Record (LFMT)
Temperature  
Mean Temperature 54 °F -  
Max Temperature 68 °F 58 °F 69 °F (2006)
Min Temperature 39 °F 44 °F 37 °F (1998)
Degree Days  
Heating Degree Days 12    
Growing Degree Days 4 (Base 50)    
Moisture  
Dew Point 24 °F    
Average Humidity 36    
Maximum Humidity 65    
Minimum Humidity 13    
Precipitation  
Precipitation 0.00 in - - ()
Sea Level Pressure  
Sea Level Pressure 30.14 in    
Wind  
Wind Speed 8 mph ()    
Max Wind Speed 18 mph    
Max Gust Speed -    
Visibility 6.2 miles    
Events      
Averages and records for this station are not official NWS values.
T = Trace of Precipitation, MM = Missing Value Source: Averaged Metar Reports

Daily Weather History Graph

Daily Weather History Graph

Search for Another Location

Airport or City:

Trip Planner

Search our weather history database for the weather conditions in past years. The results will help you decide how hot, cold, wet, or windy it might be!

Date:

Astronomy

Nov. 12, 2013 Rise Set
Actual Time 7:34 AM CET 5:23 PM CET
Civil Twilight 7:04 AM CET 5:54 PM CET
Nautical Twilight 6:29 AM CET 6:28 PM CET
Astronomical Twilight 5:56 AM CET 7:02 PM CET
Moon 2:37 PM CET (11/12) 1:58 AM CET (11/12)
Length of Visible Light 10h 49m
Length of Day
9h 48m
Waxing Gibbous, 74% of the Moon is Illuminated
Nov 12
Waxing Gibbous
Nov 17
Full
Nov 25
Last Quarter
Dec 3
New
Dec 9
First Quarter

Hourly Weather History & Observations

Time (CET) Temp. Windchill Dew Point Humidity Pressure Visibility Wind Dir Wind Speed Gust Speed Precip Events Conditions
12:00 AM 53.6 °F - 23.0 °F 30% 30.18 in 6.2 mi WNW 15.0 mph - N/A   Unknown
12:30 AM 53.6 °F - 21.2 °F 28% 30.18 in 6.2 mi NW 15.0 mph - N/A   Unknown
1:00 AM 51.8 °F - 21.2 °F 30% 30.18 in 6.2 mi NW 6.9 mph - N/A   Unknown
1:30 AM 50.0 °F - 21.2 °F 32% 30.18 in 6.2 mi West 6.9 mph - N/A   Unknown
2:00 AM 46.4 °F 45.2 °F 23.0 °F 40% 30.18 in 6.2 mi Variable 3.5 mph - N/A   Unknown
2:30 AM 44.6 °F 42.2 °F 21.2 °F 39% 30.18 in 6.2 mi West 4.6 mph - N/A   Unknown
3:00 AM 42.8 °F 41.1 °F 21.2 °F 42% 30.18 in 6.2 mi Variable 3.5 mph - N/A   Unknown
3:30 AM 41.0 °F - 23.0 °F 49% 30.15 in 6.2 mi Variable 2.3 mph - N/A   Unknown
4:00 AM 39.2 °F 37.0 °F 24.8 °F 56% 30.15 in 6.2 mi Variable 3.5 mph - N/A   Unknown
4:30 AM 44.6 °F 42.2 °F 24.8 °F 46% 30.15 in 6.2 mi NW 4.6 mph - N/A   Unknown
5:00 AM 41.0 °F - 24.8 °F 53% 30.15 in 6.2 mi Calm Calm - N/A   Unknown
5:30 AM 39.2 °F 35.0 °F 26.6 °F 61% 30.15 in 6.2 mi WNW 5.8 mph - N/A   Unknown
6:00 AM 44.6 °F 39.2 °F 30.2 °F 57% 30.15 in 6.2 mi WNW 10.4 mph - N/A   Unknown
6:30 AM 42.8 °F 39.3 °F 28.4 °F 57% 30.15 in 6.2 mi West 5.8 mph - N/A   Unknown
7:00 AM 42.8 °F 38.6 °F 28.4 °F 57% 30.15 in 6.2 mi WNW 6.9 mph - N/A   Unknown
7:30 AM 41.0 °F - 26.6 °F 57% 30.15 in 6.2 mi WSW 2.3 mph - N/A   Unknown
8:00 AM 39.2 °F 37.0 °F 26.6 °F 61% 30.18 in 6.2 mi WNW 3.5 mph - N/A   Unknown
8:30 AM 41.0 °F 37.1 °F 30.2 °F 65% 30.18 in 6.2 mi WNW 5.8 mph - N/A   Unknown
9:00 AM 50.0 °F - 28.4 °F 43% 30.18 in 6.2 mi West 5.8 mph - N/A   Unknown
9:30 AM 55.4 °F - 24.8 °F 31% 30.18 in 6.2 mi West 6.9 mph - N/A   Unknown
10:00 AM 59.0 °F - 21.2 °F 23% 30.18 in 6.2 mi West 8.1 mph - N/A   Unknown
10:30 AM 60.8 °F - 19.4 °F 20% 30.18 in 6.2 mi West 10.4 mph - N/A   Unknown
11:00 AM 64.4 °F - 17.6 °F 16% 30.18 in 6.2 mi WNW 12.7 mph - N/A   Unknown
11:30 AM 64.4 °F - 14.0 °F 14% 30.18 in 6.2 mi NW 15.0 mph - N/A   Unknown
12:00 PM 66.2 °F - 14.0 °F 13% 30.15 in 6.2 mi NW 17.3 mph - N/A   Unknown
12:30 PM 66.2 °F - 14.0 °F 13% 30.15 in 6.2 mi NNW 18.4 mph - N/A   Unknown
1:00 PM 68.0 °F - 15.8 °F 13% 30.12 in 6.2 mi NW 17.3 mph - N/A   Unknown
1:30 PM 68.0 °F - 17.6 °F 15% 30.12 in 6.2 mi NW 15.0 mph - N/A   Unknown
2:00 PM 68.0 °F - 19.4 °F 16% 30.12 in 6.2 mi NW 15.0 mph - N/A   Unknown
2:30 PM 68.0 °F - 19.4 °F 16% 30.12 in 6.2 mi NNW 16.1 mph - N/A   Unknown
3:00 PM 68.0 °F - 19.4 °F 16% 30.09 in 6.2 mi NNW 16.1 mph - N/A   Unknown
3:30 PM 68.0 °F - 19.4 °F 16% 30.09 in 6.2 mi NNW 15.0 mph - N/A   Unknown
4:00 PM 68.0 °F - 19.4 °F 16% 30.09 in 6.2 mi NNW 15.0 mph - N/A   Unknown
4:30 PM 66.2 °F - 19.4 °F 17% 30.09 in 6.2 mi NW 9.2 mph - N/A   Unknown
5:00 PM 62.6 °F - 19.4 °F 19% 30.12 in 6.2 mi West 8.1 mph - N/A   Unknown
5:30 PM 59.0 °F - 23.0 °F 25% 30.12 in 6.2 mi West 9.2 mph - N/A   Unknown
6:00 PM 53.6 °F - 24.8 °F 33% 30.12 in 6.2 mi West 6.9 mph - N/A   Unknown
6:30 PM 51.8 °F - 26.6 °F 38% 30.12 in 6.2 mi West 8.1 mph - N/A   Unknown
7:00 PM 51.8 °F - 28.4 °F 41% 30.12 in 6.2 mi West 8.1 mph - N/A   Unknown
7:30 PM 48.2 °F - 28.4 °F 46% 30.12 in 6.2 mi West 5.8 mph - N/A   Unknown
8:00 PM 50.0 °F - 28.4 °F 43% 30.12 in 6.2 mi WSW 4.6 mph - N/A   Unknown
8:30 PM 48.2 °F - 26.6 °F 43% 30.12 in 6.2 mi West 3.5 mph - N/A   Unknown
9:00 PM 48.2 °F - 30.2 °F 50% 30.15 in 6.2 mi West 8.1 mph - N/A   Unknown
9:30 PM 51.8 °F - 28.4 °F 41% 30.15 in 6.2 mi WNW 8.1 mph - N/A   Unknown
10:00 PM 48.2 °F - 30.2 °F 50% 30.15 in 6.2 mi WNW 4.6 mph - N/A   Unknown
10:30 PM 48.2 °F - 32.0 °F 54% 30.12 in 6.2 mi West 5.8 mph - N/A   Unknown
11:00 PM 55.4 °F - 35.6 °F 47% 30.12 in 6.2 mi NW 6.9 mph - N/A   Unknown
11:30 PM 57.2 °F - 35.6 °F 44% 30.12 in 6.2 mi NW 4.6 mph - N/A   Unknown